KB3FKJ Weather Reports


Display with metric or nautical units.
time (UTC)temp
F
wind
direction
speed
MPH
gust
MPH
rain 1hr
in
rain 24hr
in
rain mn
in
humidity
%
barometer
mb
20260503201316 57 258 7.0 9.0 0.00 0.00 0.00 38 1012.3
20260503200814 56 19 4.0 11.0 0.00 0.00 0.00 38 1012.3
20260503200310 56 247 1.0 10.0 0.00 0.00 0.00 40 1012.6
20260503195807 57 232 5.0 7.0 0.00 0.00 0.00 37 1012.6
20260503195304 56 295 5.0 10.0 0.00 0.00 0.00 38 1012.5
20260503194801 56 235 9.0 11.0 0.00 0.00 0.00 38 1012.5
20260503194256 55 273 7.0 9.0 0.00 0.00 0.00 38 1012.6
20260503193753 56 288 7.0 11.0 0.00 0.00 0.00 38 1012.6
20260503193249 56 282 5.0 8.0 0.00 0.00 0.00 38 1012.6
20260503192739 57 290 7.0 9.0 0.00 0.00 0.00 38 1012.8
20260503192234 58 289 8.0 9.0 0.00 0.00 0.00 36 1012.8
20260503191732 56 280 5.0 11.0 0.00 0.00 0.00 37 1013.0
20260503191229 56 232 8.0 10.0 0.00 0.00 0.00 40 1012.8
20260503190726 56 101 4.0 10.0 0.00 0.00 0.00 39 1013.1
20260503190222 56 171 2.0 9.0 0.00 0.00 0.00 41 1013.1
20260503185720 56 244 9.0 13.0 0.00 0.00 0.00 38 1013.2
20260503185215 57 237 6.0 8.0 0.00 0.00 0.00 39 1013.1
20260503184710 57 263 4.0 8.0 0.00 0.00 0.00 39 1013.2
20260503184206 55 240 5.0 6.0 0.00 0.00 0.00 39 1013.3
20260503183703 56 304 6.0 7.0 0.00 0.00 0.00 39 1013.3
20260503183200 55 256 4.0 8.0 0.00 0.00 0.00 41 1013.3
20260503182658 55 272 6.0 8.0 0.00 0.00 0.00 40 1013.3
20260503182156 55 239 3.0 8.0 0.00 0.00 0.00 46 1013.5
20260503181652 57 131 1.0 8.0 0.00 0.00 0.00 46 1013.4
20260503181149 54 238 2.0 14.0 0.00 0.00 0.00 40 1013.5
20260503180646 56 229 8.0 10.0 0.00 0.00 0.00 41 1013.4
20260503180145 54 290 1.0 9.0 0.00 0.00 0.00 45 1013.3
20260503175641 53 251 7.0 9.0 0.00 0.00 0.00 41 1013.4
20260503175138 53 288 2.0 8.0 0.00 0.00 0.00 45 1013.6
20260503174635 54 210 5.0 15.0 0.00 0.00 0.00 41 1013.6
20260503174132 55 302 5.0 8.0 0.00 0.00 0.00 43 1013.6
20260503173627 52 307 9.0 13.0 0.00 0.00 0.00 41 1013.7
20260503173124 53 232 6.0 14.0 0.00 0.00 0.00 40 1013.6
20260503172621 53 200 5.0 8.0 0.00 0.00 0.00 41 1013.8
20260503172118 55 159 3.0 9.0 0.00 0.00 0.00 45 1013.8
20260503171615 54 251 3.0 7.0 0.00 0.00 0.00 43 1013.5
20260503171112 52 273 7.0 9.0 0.00 0.00 0.00 44 1013.6
20260503170609 52 213 3.0 8.0 0.00 0.00 0.00 44 1013.9
20260503170105 52 230 4.0 10.0 0.00 0.00 0.00 43 1013.8
20260503151000 49 246 6.0 8.0 0.00 0.00 0.00 46 1014.9
20260503150457 47 299 4.0 11.0 0.00 0.00 0.00 50 1015.0
20260503131350 43 272 4.0 9.0 0.00 0.00 0.00 61 1015.4
20260503130847 43 245 6.0 9.0 0.00 0.00 0.00 60 1015.4
20260503130345 43 240 3.0 6.0 0.00 0.00 0.00 61 1015.5
20260503110744 35 136 1.0 2.0 0.00 0.00 0.00 74 1014.9
20260503110241 35 166 0.0 1.0 0.00 0.00 0.00 74 1014.8
20260503100207 34 274 2.0 3.0 0.00 0.00 0.00 75 1014.0
20260503090131 36 279 4.0 6.0 0.00 0.00 0.00 71 1013.9
20260503081602 36 133 0.0 1.0 0.00 0.00 0.00 73 1013.7
20260503081100 36 203 2.0 2.0 0.00 0.00 0.00 72 1013.7
20260503080555 36 209 2.0 3.0 0.00 0.00 0.00 72 1013.5
20260503072529 36 141 1.0 1.0 0.00 0.00 0.00 71 1013.5
20260503072026 36 294 4.0 6.0 0.00 0.00 0.00 70 1013.5
20260503071523 37 151 1.0 2.0 0.00 0.00 0.00 70 1013.4
20260503071020 37 274 3.0 3.0 0.00 0.00 0.00 69 1013.5
20260503070516 37 130 1.0 2.0 0.00 0.00 0.00 68 1013.3
20260503054934 37 197 1.0 3.0 0.00 0.00 0.00 68 1013.6
20260503054430 37 300 2.0 3.0 0.00 0.00 0.00 69 1013.6
20260503053928 37 151 0.0 1.0 0.00 0.00 0.00 69 1013.5
20260503053426 38 119 0.0 0.0 0.00 0.00 0.00 69 1013.4
20260503052922 38 127 0.0 1.0 0.00 0.00 0.00 67 1013.7
20260503052420 38 115 0.0 1.0 0.00 0.00 0.00 68 1013.8
20260503051916 39 122 0.0 1.0 0.00 0.00 0.00 68 1013.7
20260503051412 39 151 2.0 2.0 0.00 0.00 0.00 66 1013.7
20260503050909 39 164 1.0 2.0 0.00 0.00 0.00 66 1013.7
20260503050405 39 124 0.0 1.0 0.00 0.00 0.00 68 1013.5
20260503045903 39 123 0.0 1.0 0.00 0.00 0.00 66 1013.6
20260503045400 39 138 1.0 1.0 0.00 0.00 0.00 67 1013.6
20260503044856 39 129 0.0 1.0 0.00 0.00 0.00 68 1013.7
20260503044354 39 132 0.0 1.0 0.00 0.00 0.00 67 1013.8
20260503043851 39 123 0.0 0.0 0.00 0.00 0.00 68 1013.7
20260503043348 39 116 0.0 0.0 0.00 0.00 0.00 67 1013.8
20260503042844 39 119 0.0 0.0 0.00 0.00 0.00 66 1013.7
20260503042340 39 143 1.0 3.0 0.00 0.00 0.00 64 1013.8
20260503041836 39 138 1.0 2.0 0.00 0.00 0.00 66 1013.7
20260503041334 39 125 0.0 1.0 0.00 0.00 0.00 67 1013.8
20260503040832 40 118 0.0 0.0 0.00 0.00 0.00 64 1013.8
20260503040329 40 243 2.0 3.0 0.00 0.00 0.00 63 1013.7
20260503035826 40 163 2.0 2.0 0.00 0.05 0.05 64 1013.7
20260503035323 40 115 0.0 1.0 0.00 0.05 0.05 65 1013.8
20260503034820 40 126 0.0 0.0 0.00 0.05 0.05 66 1014.1
20260503034317 40 120 0.0 1.0 0.00 0.05 0.05 65 1014.0
20260503033814 40 144 1.0 1.0 0.00 0.05 0.05 66 1013.9
20260503033312 40 130 0.0 1.0 0.00 0.05 0.05 66 1013.9
20260503032810 40 119 0.0 1.0 0.00 0.05 0.05 66 1014.1
20260503032309 40 121 0.0 1.0 0.00 0.05 0.05 67 1014.0
20260503031805 41 157 0.0 1.0 0.00 0.05 0.05 67 1014.1
20260503031303 41 273 4.0 4.0 0.00 0.05 0.05 65 1014.0
20260503030759 41 125 0.0 2.0 0.00 0.05 0.05 65 1014.2
20260503030256 41 170 1.0 1.0 0.00 0.05 0.05 67 1014.1
20260503025752 41 137 1.0 1.0 0.00 0.05 0.05 66 1014.0
20260503025250 41 226 1.0 4.0 0.00 0.05 0.05 68 1014.0
20260503024747 41 125 1.0 3.0 0.00 0.05 0.05 67 1014.1
20260503024244 41 121 0.0 2.0 0.00 0.05 0.05 66 1014.2
20260503023740 41 288 3.0 3.0 0.00 0.05 0.05 66 1014.1
20260503023238 41 146 1.0 1.0 0.00 0.05 0.05 68 1014.2
20260503022734 41 141 0.0 0.0 0.00 0.05 0.05 67 1014.3
20260503022234 41 127 0.0 1.0 0.00 0.05 0.05 68 1014.2
20260503021731 41 236 2.0 6.0 0.00 0.05 0.05 68 1014.1
20260503021226 41 116 1.0 2.0 0.00 0.05 0.05 69 1014.2
20260503020725 41 266 3.0 6.0 0.00 0.05 0.05 68 1014.0
20260503020222 41 220 3.0 4.0 0.00 0.05 0.05 69 1014.0
20260503015718 41 261 2.0 3.0 0.00 0.05 0.05 68 1014.0
20260503015215 41 248 2.0 3.0 0.00 0.05 0.05 69 1014.0
20260503014711 41 161 1.0 3.0 0.00 0.05 0.05 73 1013.8
20260503014209 41 250 3.0 4.0 0.00 0.05 0.05 73 1013.9
20260503013706 41 135 0.0 3.0 0.00 0.05 0.05 74 1013.8
20260503013204 41 141 1.0 3.0 0.00 0.05 0.05 74 1013.9
20260503012701 41 142 2.0 3.0 0.00 0.05 0.05 74 1013.8
20260503012158 41 186 2.0 2.0 0.00 0.05 0.05 74 1013.9
20260503011654 41 156 1.0 1.0 0.00 0.05 0.05 73 1013.9
20260503011151 41 174 2.0 2.0 0.00 0.05 0.05 72 1013.7
20260503010647 41 128 2.0 4.0 0.00 0.05 0.05 72 1013.6
20260503010145 41 141 1.0 2.0 0.00 0.05 0.05 74 1013.5
20260503005642 41 242 2.0 2.0 0.00 0.05 0.05 75 1013.6
20260503005139 41 166 2.0 3.0 0.00 0.05 0.05 75 1013.5
20260503004635 42 150 0.0 1.0 0.00 0.05 0.05 76 1013.4
20260503004134 42 155 1.0 4.0 0.00 0.05 0.05 75 1013.4
20260503003630 42 228 2.0 3.0 0.00 0.05 0.05 75 1013.4
20260503003127 42 193 1.0 1.0 0.00 0.05 0.05 75 1013.2
20260503002624 42 156 2.0 3.0 0.00 0.05 0.05 75 1013.2
20260503002121 42 74 1.0 3.0 0.00 0.05 0.05 74 1013.2
20260503001617 42 172 1.0 2.0 0.00 0.05 0.05 74 1013.5
20260503001114 42 157 1.0 2.0 0.00 0.05 0.05 73 1013.3
20260503000612 42 159 1.0 2.0 0.00 0.05 0.05 73 1013.4
20260503000109 42 226 2.0 4.0 0.00 0.05 0.05 73 1013.4
20260502235605 42 177 1.0 2.0 0.00 0.05 0.05 73 1013.3
20260502235103 42 249 2.0 3.0 0.00 0.05 0.05 72 1013.4
20260502234559 42 135 1.0 2.0 0.00 0.05 0.05 73 1013.3
20260502234057 43 139 1.0 3.0 0.00 0.05 0.05 72 1013.2
20260502233557 43 156 1.0 2.0 0.00 0.05 0.05 72 1013.1
20260502233055 43 238 3.0 4.0 0.00 0.05 0.05 71 1013.2
20260502232550 43 132 1.0 3.0 0.00 0.05 0.05 71 1013.3
20260502232048 43 102 1.0 2.0 0.00 0.05 0.05 71 1013.0
20260502231545 43 169 2.0 2.0 0.00 0.05 0.05 72 1013.2
20260502231043 43 123 1.0 2.0 0.00 0.05 0.05 73 1013.0
20260502230541 43 117 0.0 2.0 0.00 0.05 0.05 73 1013.0
20260502230039 43 87 1.0 6.0 0.00 0.05 0.05 72 1013.0
20260502225534 44 237 1.0 4.0 0.00 0.05 0.05 71 1013.0
20260502225032 44 230 2.0 3.0 0.00 0.05 0.05 71 1013.1
20260502224528 44 192 1.0 3.0 0.00 0.05 0.05 72 1013.0
20260502224025 44 133 1.0 2.0 0.00 0.05 0.05 71 1013.1
20260502223523 44 116 0.0 1.0 0.00 0.05 0.05 71 1012.9
20260502223021 44 136 1.0 1.0 0.00 0.05 0.05 70 1012.9
20260502222518 44 142 1.0 2.0 0.00 0.05 0.05 70 1012.9
20260502222014 44 207 2.0 3.0 0.00 0.05 0.05 69 1012.8
20260502221509 44 146 1.0 3.0 0.00 0.05 0.05 70 1013.1
20260502221007 44 134 1.0 1.0 0.00 0.05 0.05 71 1012.9
20260502220502 45 109 0.0 1.0 0.00 0.05 0.05 70 1012.9
20260502215959 45 117 0.0 1.0 0.00 0.05 0.05 72 1013.0
20260502215457 44 264 2.0 3.0 0.00 0.05 0.05 71 1013.1
20260502214953 44 90 1.0 3.0 0.00 0.05 0.05 73 1012.8
20260502214450 44 170 1.0 3.0 0.00 0.05 0.05 72 1013.0
20260502213948 44 106 0.0 4.0 0.00 0.05 0.05 72 1012.8
20260502213444 44 118 1.0 1.0 0.00 0.05 0.05 72 1012.9
20260502212943 44 240 3.0 4.0 0.00 0.05 0.05 73 1012.9
20260502212441 43 126 2.0 4.0 0.00 0.05 0.05 73 1012.8
20260502211938 43 157 1.0 3.0 0.00 0.05 0.05 73 1012.9
20260502211434 44 263 2.0 3.0 0.00 0.05 0.05 74 1013.0
20260502210931 44 247 3.0 4.0 0.00 0.05 0.05 73 1012.6
20260502210428 43 182 1.0 4.0 0.00 0.05 0.05 73 1012.7
20260502205925 43 131 1.0 2.0 0.00 0.05 0.05 74 1012.6
20260502205421 44 211 2.0 3.0 0.00 0.05 0.05 73 1012.7
20260502204919 44 200 1.0 3.0 0.00 0.05 0.05 73 1012.9
20260502204416 44 188 1.0 2.0 0.00 0.05 0.05 75 1012.8
20260502203914 44 112 1.0 2.0 0.00 0.05 0.05 73 1013.0
20260502203411 44 118 0.0 1.0 0.00 0.05 0.05 75 1012.9
20260502202906 43 121 0.0 2.0 0.00 0.05 0.05 74 1012.9
20260502202404 44 123 0.0 3.0 0.00 0.05 0.05 75 1012.8
20260502201902 44 291 4.0 4.0 0.00 0.05 0.05 74 1012.9
20260502201357 43 241 3.0 6.0 0.00 0.05 0.05 74 1012.8